Weather in Sri Ganganagar

India     29°54′51″N   73°52′47″E
temp.,
°C
wind,
m/s
gust,
m/s
humid.,
%
clouds,
%
prec.,
mm/h
press.,
hPa
HPBL,
m
24 september, fri
fri2423:30+26ese37791 0.0 1007212
02:30+25e35880 0.0 1007172
05:30+25ene228739 0.0 100770
08:30+27ne447425 0.0 1009377
11:30+32e33542 0.0 10081249
14:30+34e224587 0.0 10052034
17:30+32ene345295 0.0 1005268
20:30+31e345541 0.0 1006127
25 september, sat
sat2523:30+29ese22620 0.0 100617
02:30+28e11663 0.0 100611
05:30+27ne11695 0.0 100611
08:30+30ese11600 0.0 1007270
11:30+34nnw014212 0.0 10061954
14:30+36nw223412 0.0 10032612
17:30+36nne023320 0.0 10021945
20:30+31ese47510 0.0 1003220
26 september, sun
sun2623:30+30se23550 0.0 100473
02:30+29ese22560 0.0 100323
05:30+28ese22600 0.0 100431
08:30+31e23530 0.0 1005287
11:30+35e12380 0.0 10051696
14:30+38nne12280 0.0 10022896
17:30+37e22290 0.0 1001849
20:30+32e37420 0.0 1003172
27 september, mon
mon2723:30+30ese23500 0.0 100459
02:30+29ese23560 0.0 100460
05:30+28e34630 0.0 100484
08:30+31ese34610 0.0 1006363
11:30+35ese44440 0.0 10061785
14:30+36ene444096 0.3 10031973
17:30+34e344429 0.3 1003682
20:30+30sse486315 0.0 1004248
28 september, tue
tue2823:30+29s376181 0.1 1005220
02:30+29sse366166 0.4 1004216
05:30+28ene2368100 1.6 1006112
08:30+27ne457096 0.1 1008243
11:30+28ese236894 0.1 1008191
14:30+30se346192 0.1 1006443
17:30+32e235046 0.2 1005448
20:30+29e226112 0.0 100613